DW4253 Weather Reports


Display with metric or nautical units.
time (UTC)temp
F
wind
direction
speed
MPH
gust
MPH
rain 1hr
in
rain 24hr
in
rain mn
in
humidity
%
barometer
mb
20260503000803 57 122 1.0 3.0 0.00 0.54 0.01 95 1013.7
20260503000304 57 117 1.0 3.0 0.00 0.54 0.01 95 1013.8
20260502220304 57 19 1.0 7.0 0.17 0.54 0.01 93 1014.3
20260502210304 59 342 6.0 22.0 0.39 0.39 0.39 90 1015.1
20260502200304 66 66 2.0 9.0 0.00 0.00 0.00 77 1014.2
20260502190804 68 80 1.0 2.0 0.00 0.00 0.00 73 1014.6
20260502170306 72 321 1.0 5.0 0.00 0.00 0.00 64 1014.8
20260502160304 76 276 1.0 7.0 0.00 0.00 0.00 54 1015.4
20260502150804 76 218 1.0 3.0 0.00 0.00 0.00 54 1016.2
20260502150303 76 222 2.0 9.0 0.00 0.00 0.00 55 1016.3
20260502130304 76 211 2.0 12.0 0.00 0.00 0.00 55 1017.7
20260502120304 74 199 4.0 10.0 0.00 0.00 0.00 59 1018.5
20260502110804 76 194 4.0 9.0 0.00 0.00 0.00 56 1019.0
20260502100804 75 196 2.0 6.0 0.00 0.00 0.00 56 1019.5
20260502100303 75 252 3.0 10.0 0.00 0.00 0.00 59 1019.5
20260502090804 70 182 1.0 3.0 0.00 0.00 0.00 61 1019.7
20260502070304 58 198 2.0 5.0 0.00 0.00 0.00 69 1019.9
20260502060804 55 232 0.0 0.0 0.00 0.00 0.00 71 1019.8
20260502050804 55 227 1.0 2.0 0.00 0.00 0.00 65 1019.6
20260502040304 47 118 0.0 0.0 0.00 0.00 0.00 81 1019.4
20260502030804 45 118 0.0 0.0 0.00 0.00 0.00 81 1019.8
20260502010804 47 118 0.0 0.0 0.00 0.00 0.00 77 1020.8
20260502010304 47 118 0.0 0.0 0.00 0.00 0.00 77 1020.8